Temperature
22 24 25 25 26 25 23 21 21 21 21 21 20 20 21 21 21 21 21 21 21 21 20 20 19 19 19 18 18 18 18 17 17 17 17 17 17 16 16 16 16 16 16 16
23 24 25 25 25 26 25 24 23 22 21 20 21 21 21 21 21 20 20 20 21 20 20 20 19 19 19 18 18 18 17 17 17 17 17 16 16 16 16 16 16 15 15 15
21 23 24 23 24 24 24 23 23 22 21 20 20 20 20 21 21 21 21 20 20 20 20 20 20 19 19 18 18 17 17 17 17 16 16 16 16 16 16 15 15 15 15 15
19 22 22 21 22 24 23 23 22 21 20 20 20 20 21 21 21 21 21 20 20 20 20 19 19 19 18 18 18 17 17 16 16 16 16 16 15 15 15 15 15 15 15 14
17 19 21 22 23 23 22 21 21 21 20 20 20 19 19 20 21 21 20 21 21 20 20 19 19 18 18 18 17 17 16 16 16 16 16 15 15 15 15 15 14 14 14 14
18 20 20 20 22 23 22 20 20 20 20 19 20 18 18 19 20 20 20 20 20 19 19 19 18 18 18 17 17 16 16 16 16 15 15 15 15 15 14 14 14 14 14 13
18 19 19 20 21 22 20 19 20 20 20 20 19 19 19 19 20 20 20 20 19 19 18 18 18 17 17 17 16 16 16 16 15 15 15 15 14 14 14 14 13 13 13 12
16 18 18 19 20 19 18 19 20 20 20 19 19 19 18 19 19 19 19 19 19 18 18 17 17 17 17 16 16 15 15 15 15 14 14 14 14 13 13 13 13 12 12 11
16 16 17 18 18 19 19 19 19 19 19 19 18 18 18 18 18 18 18 18 18 18 17 16 16 16 16 16 15 15 15 14 14 14 14 13 13 13 12 12 12 12 11 11
15 16 16 17 18 18 19 19 19 19 19 19 18 17 17 17 17 17 17 17 17 17 16 16 15 15 15 15 15 14 14 14 13 13 13 12 12 12 12 11 11 11 11 10
14 15 16 16 17 17 18 18 18 18 18 18 18 17 16 16 16 16 16 16 16 16 16 15 15 14 14 14 14 14 14 13 13 12 12 12 11 11 11 11 11 11 10 10
14 14 14 15 16 17 17 17 17 17 17 17 17 16 16 15 15 15 15 15 15 15 15 14 14 14 14 13 13 13 13 12 12 12 11 11 11 10 10 10 10 9 9 9
15 16 16 15 16 16 16 16 16 16 16 16 16 15 15 15 15 15 15 14 14 14 14 13 13 13 13 13 13 13 12 12 11 11 11 10 10 10 9 9 9 9 8 8
16 16 15 15 15 15 16 16 15 15 15 15 15 15 14 14 14 14 13 13 13 13 13 13 13 12 12 12 12 12 11 11 11 10 10 10 9 9 9 9 8 8 7 7
15 16 15 15 15 15 15 15 15 14 14 14 14 14 14 13 13 13 13 12 12 12 12 12 12 11 11 11 11 11 11 10 10 10 9 9 9 9 8 8 8 8 7 7
15 15 15 14 14 14 14 14 14 14 14 14 13 13 13 13 13 12 12 12 12 11 11 11 11 11 10 10 10 10 10 10 9 9 9 9 8 8 8 8 8 7 7 7
14 14 14 14 14 14 14 14 13 13 13 13 13 13 12 12 12 11 11 11 11 11 11 10 10 10 10 10 10 10 9 9 9 9 9 8 8 8 8 8 7 7 7 7
15 14 14 14 14 13 13 13 13 13 13 12 12 12 12 11 11 10 10 10 10 10 10 10 9 9 9 9 9 9 9 9 9 9 9 8 8 8 8 8 7 7 7 7
14 14 14 13 13 13 13 12 12 12 12 12 12 11 11 11 10 10 10 10 10 9 9 9 9 9 9 9 9 9 9 9 9 8 8 8 8 8 8 8 7 7 7 7
13 13 13 13 12 12 12 12 11 11 11 11 11 10 10 10 9 9 9 9 9 9 9 9 9 9 9 9 9 9 9 9 9 9 8 8 8 8 8 8 7 7 7 7
12 12 12 12 11 11 11 11 11 11 10 10 10 10 10 9 9 9 9 9 8 9 9 9 9 9 9 9 9 9 9 9 9 9 8 8 8 8 8 8 7 7 7 7
11 11 11 11 11 10 10 10 10 10 10 10 10 10 9 9 9 9 9 9 8 8 8 8 9 9 9 9 9 9 9 9 9 8 8 8 8 8 8 8 7 7 7 7
10 10 10 10 10 10 10 10 10 10 10 10 9 9 9 9 9 9 8 8 8 8 8 8 9 9 9 9 9 9 9 9 9 8 8 8 8 8 8 8 8 7 7 7
10 10 10 10 10 10 9 9 9 9 9 9 9 9 9 9 8 8 8 8 8 8 8 8 9 9 9 9 9 9 9 9 9 8 8 8 8 8 8 8 8 8 7 7
10 10 9 9 9 9 9 9 9 9 9 9 9 9 9 9 9 8 8 8 8 8 8 8 8 9 9 9 9 9 9 9 9 9 8 8 8 8 8 8 8 8 7 7
9 9 9 9 9 9 9 9 9 9 9 9 9 9 9 9 9 9 9 9 8 8 9 9 9 9 9 9 9 9 9 9 9 9 9 9 8 8 8 8 8 8 7 7
9 9 9 9 9 9 9 9 9 9 9 9 9 9 9 9 9 9 9 9 9 9 9 9 9 9 9 9 9 9 9 9 9 9 9 8 8 8 8 8 8 8 7 7
Wind_Speed
6 6 3 2 4 4 5 9 9 9 10 11 12 11 10 10 11 11 9 9 10 10 9 9 8 8 8 7 7 7 8 7 6 6 6 5 5 5 5 5 5 4 4 4
1 1 0 2 5 4 3 4 6 8 5 6 8 7 8 10 12 11 9 8 9 10 10 9 10 9 9 8 7 8 8 7 6 7 7 6 6 6 6 6 6 6 5 6
1 3 4 3 4 1 1 1 6 7 8 9 9 12 13 12 12 11 10 8 9 10 9 9 9 10 9 8 8 8 8 7 7 7 8 7 7 7 7 6 7 7 6 7
2 3 3 7 3 2 3 2 1 5 9 12 11 9 7 9 12 11 9 9 9 8 8 7 7 8 9 9 9 8 8 7 7 8 8 8 8 7 7 6 7 7 6 7
3 3 4 5 4 0 3 3 1 6 10 10 10 8 4 2 8 9 9 8 8 8 7 7 8 9 10 10 9 9 8 7 7 8 9 9 9 8 7 7 8 7 6 7
3 3 5 6 5 1 6 2 3 6 12 11 9 6 3 3 6 7 7 7 8 8 8 8 7 9 10 9 9 8 7 8 7 8 9 9 9 8 7 8 8 8 8 7
4 3 5 5 5 3 4 5 2 6 9 9 5 6 6 7 7 7 8 9 9 9 8 7 8 10 10 8 8 7 8 8 8 8 9 9 9 8 9 9 9 9 9 8
3 3 6 6 3 3 5 4 6 7 7 9 9 10 10 10 9 9 9 8 8 8 7 7 8 10 10 8 7 8 9 9 8 8 8 9 10 9 8 9 10 9 9 8
4 5 3 1 2 2 5 7 7 8 9 11 11 9 8 8 9 8 9 8 8 10 9 7 6 9 10 7 8 9 10 9 9 9 8 8 9 9 7 7 8 7 7 7
2 1 2 4 6 6 6 7 8 11 12 12 11 9 8 7 7 7 7 8 7 9 9 8 6 7 8 8 9 10 11 10 9 10 9 8 6 6 7 6 7 7 7 7
2 1 5 6 6 6 7 9 10 10 11 11 12 9 8 7 6 7 7 7 7 9 9 8 7 7 7 8 10 11 10 10 9 9 10 9 8 6 6 5 6 8 6 7
4 4 3 1 1 5 8 9 9 9 9 8 10 10 8 7 6 7 7 7 8 8 8 8 8 8 7 8 10 12 10 9 8 8 8 9 9 9 14 11 13 12 10 9
4 3 3 3 3 5 7 8 8 8 8 9 8 9 8 7 7 7 8 7 8 8 8 8 8 8 8 8 9 10 11 10 9 9 9 9 8 10 9 10 14 14 13 12
5 6 4 2 3 5 7 8 9 9 8 8 8 8 8 8 8 8 7 7 7 8 8 8 9 8 7 8 10 11 11 11 10 8 8 8 8 8 8 9 8 6 7 10
4 5 6 5 4 5 5 7 8 7 7 8 8 8 9 9 9 8 7 8 9 9 8 9 10 8 7 9 11 11 10 8 8 8 8 8 8 7 7 8 8 7 5 5
5 5 6 7 6 5 6 6 7 6 6 7 8 8 8 9 9 8 8 8 9 9 8 9 9 8 8 10 10 9 9 13 11 9 9 8 7 7 7 7 7 6 5 4
7 6 7 7 6 5 6 6 7 7 7 8 8 9 10 10 10 9 8 7 8 8 8 9 9 8 8 9 9 8 8 10 13 10 8 7 7 7 7 7 6 5 4 3
7 7 8 9 8 8 7 8 8 8 8 9 10 10 10 10 10 9 8 8 9 9 7 7 8 8 8 8 7 7 7 8 7 7 7 6 6 6 6 6 6 5 3 2
8 8 8 8 8 8 8 8 8 8 9 9 10 10 9 9 9 9 9 9 10 9 6 6 9 8 7 8 8 6 7 8 7 6 6 8 7 6 6 6 5 5 5 4
9 9 9 8 9 9 9 8 9 9 8 9 11 11 10 9 9 9 9 8 5 5 6 7 7 6 7 7 8 5 6 7 7 7 6 6 6 6 6 6 6 6 5 5
8 8 9 10 10 9 9 9 9 10 9 9 10 11 10 9 8 8 8 7 4 6 7 7 5 4 5 6 7 5 5 5 6 6 6 6 6 6 6 6 6 6 6 5
8 9 10 10 10 8 7 7 9 10 9 9 10 10 10 10 9 8 6 5 5 7 6 4 4 5 6 6 4 4 5 5 5 5 5 6 6 6 6 6 6 6 6 5
8 9 9 9 9 10 9 8 8 9 10 10 10 9 9 8 7 8 6 4 5 6 5 4 5 7 6 4 3 4 5 5 5 5 5 5 5 6 6 7 6 6 6 6
8 9 9 9 10 10 10 8 8 8 8 8 8 9 8 7 5 4 5 7 7 7 4 5 6 5 5 3 3 4 5 5 5 5 5 5 5 5 6 6 6 6 6 7
9 10 10 10 9 8 8 9 9 8 8 7 7 7 6 5 6 5 5 6 7 6 4 3 4 5 4 3 3 4 4 5 5 5 4 4 5 5 5 5 6 6 6 6
9 8 8 8 7 7 7 7 7 6 7 6 5 5 5 5 6 5 5 5 6 5 3 2 2 3 3 2 2 3 3 4 4 4 4 5 5 5 5 5 6 5 5 5
8 7 7 7 6 6 6 6 6 6 6 6 6 5 5 5 5 5 5 4 4 3 2 2 2 2 2 2 2 2 2 3 3 3 3 4 4 4 5 5 4 4 6 6
Wind_Direction
203 209 187 223 263 220 186 188 185 203 188 197 185 179 170 160 150 147 152 158 165 164 160 160 161 160 156 156 153 148 144 146 151 149 141 132 127 122 115 114 114 108 108 109
295 302 32 330 296 276 237 201 178 159 194 200 173 152 150 151 151 149 153 160 159 156 157 160 163 161 154 153 153 145 144 146 143 137 131 125 121 112 106 102 99 97 96 96
264 330 39 311 271 231 314 319 162 175 197 170 163 164 166 159 150 151 158 160 163 162 162 163 160 156 154 151 143 138 138 137 135 131 125 120 116 107 105 102 95 90 88 92
130 62 223 245 260 115 96 26 131 155 159 164 162 152 145 147 144 153 159 161 156 157 153 150 144 143 139 133 133 135 134 134 135 131 125 120 115 112 106 102 99 96 91 94
117 165 264 296 318 119 117 351 4 139 143 136 124 91 63 117 141 150 157 150 141 144 143 137 138 140 134 131 131 130 130 134 134 131 128 123 120 117 113 107 101 97 95 95
126 149 219 250 284 297 100 14 326 138 142 140 122 127 186 151 132 133 130 127 123 123 122 129 134 131 128 132 131 134 136 134 130 128 126 123 120 116 110 107 104 99 88 83
158 185 248 266 296 54 116 213 236 130 137 135 133 151 146 123 113 115 112 111 117 119 124 134 134 126 123 124 129 131 124 120 119 120 122 121 115 113 112 109 104 99 92 80
142 172 243 308 26 125 188 162 122 110 106 104 106 108 113 112 109 110 107 105 110 118 117 118 126 128 127 128 130 123 119 116 115 117 120 117 115 112 112 113 108 105 100 89
179 202 238 330 121 152 135 122 123 121 116 112 112 111 111 109 109 107 111 109 110 116 112 105 112 128 131 136 129 121 115 112 110 106 105 111 117 119 116 113 115 113 110 105
66 340 70 71 62 59 86 109 120 124 125 122 117 115 112 110 109 106 102 109 112 117 118 117 112 117 127 129 124 120 117 114 113 111 105 97 98 109 117 119 121 122 121 116
76 39 43 39 48 63 74 90 101 108 115 120 122 123 121 116 113 110 109 110 115 120 124 125 119 118 122 126 125 120 118 117 114 111 109 98 85 72 94 97 127 132 131 128
202 219 158 170 34 78 86 92 103 108 107 114 122 125 119 117 116 113 113 114 117 119 123 125 124 121 121 124 128 127 124 122 119 117 113 111 106 84 60 78 90 95 103 111
181 157 121 120 73 78 88 85 91 104 114 113 109 115 117 117 110 107 109 115 122 123 123 125 123 122 123 124 126 127 130 129 125 123 122 122 121 118 105 74 71 81 94 101
134 112 90 93 103 86 93 92 88 91 98 108 114 115 117 113 111 108 109 112 116 116 117 119 117 115 118 122 123 122 122 124 125 124 125 125 124 123 123 123 113 86 73 91
129 132 145 141 115 91 85 92 92 91 99 102 113 120 119 118 116 112 108 112 112 110 112 114 114 111 114 120 121 122 123 125 124 123 122 122 121 120 118 119 119 115 102 83
130 113 126 125 122 116 109 112 112 109 108 108 110 113 114 112 110 107 105 114 119 118 119 118 119 121 122 121 121 121 123 127 127 127 127 126 125 125 124 122 122 123 125 125
141 151 140 136 129 126 124 125 126 125 120 117 116 113 110 108 105 102 103 104 109 113 117 121 125 126 125 123 123 124 125 131 129 126 128 132 133 133 134 134 135 136 143 150
152 153 149 141 131 122 115 112 115 117 119 119 116 114 115 116 117 116 114 111 107 104 107 118 122 123 122 122 122 124 125 128 130 130 131 133 136 139 141 142 146 146 150 147
119 119 118 117 118 118 115 111 109 109 114 118 117 114 112 113 116 116 115 114 116 118 122 124 126 125 127 133 129 126 129 131 131 133 134 139 139 142 147 151 153 156 155 149
110 111 108 106 107 113 117 116 112 110 114 118 116 114 112 112 113 113 110 105 109 126 132 128 124 125 133 142 136 132 136 139 140 141 142 147 150 152 156 159 158 158 159 161
109 112 111 111 109 108 113 115 114 113 114 117 120 123 121 116 114 113 113 109 103 109 114 115 114 118 124 133 129 127 132 139 141 145 148 151 154 158 162 165 164 164 166 168
111 112 113 116 115 112 111 112 114 116 117 116 118 120 118 115 111 103 97 113 120 116 113 113 114 120 126 123 123 132 141 145 145 146 149 152 155 159 164 165 167 170 171 173
113 113 114 118 120 118 110 108 110 115 118 120 122 123 122 121 123 125 120 120 121 117 113 116 126 132 131 121 125 136 145 149 152 157 161 162 162 164 166 169 173 174 175 180
111 110 110 112 112 112 110 108 108 111 114 115 118 121 121 119 110 108 125 133 129 122 116 127 138 147 143 124 128 141 146 150 152 155 156 156 158 160 165 169 175 182 185 185
107 107 107 107 107 111 114 114 111 110 108 107 109 110 113 121 129 134 128 131 133 127 126 146 152 150 142 129 124 133 145 152 154 153 154 158 164 170 177 180 181 185 188 190
103 103 101 101 107 111 114 114 110 111 113 111 110 113 114 115 120 123 125 137 145 146 149 160 150 136 136 129 122 137 151 155 156 161 168 170 175 177 180 183 182 185 187 190
96 98 99 98 97 104 108 110 115 118 120 123 123 125 129 129 126 129 132 137 149 159 164 171 167 162 165 161 153 159 162 162 161 165 166 167 168 173 179 180 180 183 187 188
Height
1465 1460 1459 1461 1462 1463 1471 1478 1488 1486 1484 1479 1476 1477 1479 1481 1484 1487 1491 1493 1496 1498 1501 1504 1506 1508 1510 1512 1513 1515 1516 1518 1519 1521 1522 1524 1525 1526 1528 1529 1530 1531 1533 1534
1463 1457 1457 1461 1459 1459 1462 1465 1471 1474 1479 1471 1473 1475 1478 1481 1483 1486 1490 1492 1495 1498 1500 1502 1505 1507 1509 1511 1513 1514 1516 1517 1519 1520 1521 1523 1524 1525 1526 1528 1529 1530 1531 1532
1475 1463 1462 1473 1463 1461 1463 1462 1465 1474 1472 1469 1472 1473 1475 1479 1481 1485 1488 1491 1495 1497 1499 1501 1504 1506 1507 1510 1512 1514 1515 1517 1518 1519 1521 1522 1523 1525 1525 1526 1528 1529 1530 1531
1478 1473 1485 1474 1456 1455 1459 1461 1460 1461 1463 1466 1468 1472 1475 1477 1479 1484 1487 1490 1494 1497 1499 1501 1503 1505 1507 1509 1511 1513 1514 1516 1517 1519 1520 1521 1522 1523 1524 1526 1527 1528 1528 1529
1484 1485 1479 1465 1457 1456 1461 1466 1460 1460 1463 1467 1470 1474 1478 1480 1480 1483 1486 1489 1491 1494 1497 1500 1502 1504 1505 1508 1510 1512 1513 1515 1516 1518 1519 1520 1521 1522 1524 1525 1526 1527 1528 1529
1480 1484 1487 1472 1456 1453 1457 1472 1463 1460 1463 1466 1469 1479 1481 1480 1482 1484 1486 1488 1491 1494 1497 1499 1501 1503 1505 1507 1508 1510 1512 1514 1516 1517 1518 1519 1520 1522 1523 1524 1525 1526 1527 1528
1478 1482 1477 1462 1455 1453 1472 1475 1464 1462 1463 1465 1468 1472 1477 1479 1482 1484 1486 1489 1491 1494 1496 1498 1501 1503 1504 1506 1508 1509 1511 1513 1515 1516 1517 1519 1520 1521 1522 1524 1525 1526 1527 1528
1479 1483 1481 1460 1457 1462 1465 1461 1462 1463 1465 1467 1470 1473 1476 1479 1482 1484 1485 1488 1490 1492 1495 1497 1500 1502 1503 1505 1507 1509 1511 1512 1514 1515 1516 1518 1519 1520 1522 1523 1524 1526 1527 1528
1473 1475 1465 1460 1459 1459 1459 1460 1462 1464 1467 1469 1472 1475 1478 1480 1482 1485 1486 1488 1490 1492 1495 1497 1499 1502 1503 1505 1507 1509 1510 1512 1513 1514 1515 1517 1519 1520 1521 1523 1524 1525 1527 1528
1469 1466 1463 1462 1461 1461 1460 1460 1462 1464 1467 1470 1473 1477 1480 1482 1484 1485 1486 1489 1491 1492 1494 1496 1498 1501 1502 1504 1506 1507 1509 1511 1513 1514 1515 1517 1519 1520 1522 1523 1524 1526 1527 1529
1469 1467 1465 1464 1464 1464 1463 1464 1466 1467 1468 1471 1474 1478 1481 1483 1485 1486 1487 1490 1491 1493 1494 1496 1498 1500 1502 1503 1505 1507 1508 1510 1512 1513 1515 1517 1518 1520 1522 1524 1526 1527 1528 1530
1470 1467 1467 1468 1467 1467 1466 1466 1467 1469 1471 1473 1474 1477 1480 1483 1485 1486 1487 1489 1491 1492 1493 1495 1497 1499 1501 1503 1505 1506 1508 1509 1511 1513 1515 1517 1518 1521 1523 1526 1528 1529 1531 1532
1464 1465 1466 1467 1468 1468 1467 1468 1469 1470 1472 1473 1476 1478 1480 1482 1484 1486 1487 1489 1490 1492 1493 1495 1497 1499 1501 1503 1504 1506 1507 1509 1511 1513 1515 1517 1520 1521 1523 1527 1529 1531 1533 1534
1463 1464 1466 1467 1469 1469 1469 1469 1470 1472 1474 1474 1476 1479 1481 1482 1483 1485 1487 1488 1490 1491 1493 1495 1497 1499 1501 1503 1505 1506 1508 1510 1512 1514 1516 1519 1521 1523 1525 1527 1529 1532 1535 1537
1464 1463 1465 1467 1469 1469 1470 1470 1471 1472 1473 1475 1476 1478 1480 1481 1483 1484 1486 1488 1490 1491 1493 1494 1496 1499 1501 1503 1505 1507 1509 1511 1513 1516 1518 1521 1523 1525 1527 1529 1531 1533 1536 1539
1464 1464 1465 1467 1468 1469 1470 1471 1472 1474 1475 1476 1477 1478 1480 1482 1483 1485 1487 1489 1490 1492 1494 1495 1497 1500 1503 1504 1506 1508 1510 1513 1515 1518 1520 1523 1526 1528 1529 1532 1534 1536 1539 1541
1462 1464 1465 1467 1468 1469 1470 1472 1472 1475 1476 1477 1478 1480 1481 1483 1484 1486 1488 1490 1492 1493 1495 1497 1499 1502 1504 1506 1508 1510 1512 1515 1518 1520 1523 1526 1528 1530 1532 1534 1536 1539 1541 1543
1461 1463 1464 1465 1467 1469 1471 1472 1474 1475 1476 1478 1479 1481 1483 1484 1486 1488 1490 1491 1493 1495 1497 1499 1502 1504 1506 1509 1511 1513 1515 1517 1520 1523 1526 1528 1530 1533 1535 1537 1539 1541 1543 1545
1460 1462 1464 1465 1467 1469 1470 1472 1474 1476 1477 1479 1481 1482 1484 1486 1488 1490 1492 1493 1495 1497 1500 1502 1505 1507 1509 1512 1514 1517 1519 1521 1523 1526 1528 1531 1533 1535 1537 1539 1541 1543 1544 1546
1460 1462 1464 1466 1468 1470 1472 1474 1476 1477 1479 1481 1483 1485 1487 1489 1491 1493 1494 1496 1498 1500 1503 1506 1508 1510 1513 1515 1518 1520 1522 1524 1526 1528 1530 1532 1534 1536 1538 1540 1542 1544 1545 1547
1461 1463 1465 1467 1469 1472 1474 1476 1478 1479 1481 1484 1486 1488 1490 1492 1494 1495 1497 1499 1502 1504 1507 1509 1511 1514 1516 1519 1521 1523 1524 1526 1528 1530 1532 1533 1535 1537 1539 1541 1543 1545 1546 1548
1463 1464 1467 1469 1471 1474 1476 1478 1480 1482 1484 1487 1489 1491 1492 1494 1497 1499 1501 1503 1505 1508 1510 1513 1515 1517 1520 1521 1523 1525 1526 1528 1530 1531 1533 1535 1537 1538 1540 1542 1543 1545 1546 1548
1464 1466 1469 1471 1473 1476 1478 1481 1483 1485 1487 1490 1492 1494 1495 1497 1499 1501 1503 1507 1509 1512 1514 1516 1518 1520 1522 1524 1525 1527 1528 1529 1531 1532 1534 1536 1537 1539 1540 1542 1543 1545 1546 1547
1467 1469 1471 1473 1476 1478 1481 1484 1486 1489 1491 1493 1495 1497 1499 1501 1503 1506 1508 1510 1513 1515 1517 1519 1521 1523 1524 1526 1527 1528 1529 1531 1532 1533 1535 1536 1538 1539 1540 1542 1543 1544 1545 1546
1470 1472 1474 1476 1479 1481 1484 1487 1489 1492 1494 1496 1499 1501 1503 1505 1507 1509 1511 1514 1516 1518 1520 1522 1523 1525 1526 1528 1529 1530 1531 1532 1533 1534 1535 1536 1538 1539 1540 1541 1542 1543 1543 1544
1474 1476 1479 1481 1483 1486 1489 1491 1493 1495 1497 1500 1502 1505 1507 1509 1511 1513 1515 1517 1519 1521 1522 1524 1525 1526 1528 1529 1530 1531 1532 1533 1534 1535 1536 1536 1537 1538 1539 1540 1541 1541 1542 1542
1480 1482 1484 1487 1489 1491 1493 1495 1497 1499 1502 1504 1506 1508 1510 1512 1514 1516 1518 1519 1521 1523 1524 1526 1527 1528 1529 1530 1531 1532 1532 1533 1534 1534 1535 1536 1537 1537 1538 1538 1539 1539 1540 1540